Location: Bishopstone
(51.0167°N, 1.9000°W)
Time: 19:40:31
(UTC+00:00)

Okean 1 Rocket - Visible Passes

Search period start: 12 December 2019 00:00
Search period end: 22 December 2019 00:00
Orbit: 605 x 636 km, 82.5° (Epoch: 12 December)

Date Brightness Start Highest point End Pass type
(mag) Time Alt. Az. Time Alt. Az. Time Alt. Az.
13 Dec 6.0 07:05:44 10° ESE 07:07:44 13° E 07:09:45 10° NE visible
14 Dec 5.7 07:21:57 10° SE 07:25:17 22° E 07:28:38 10° NE visible
16 Dec 5.1 18:00:05 10° N 18:00:46 14° NNE 18:00:46 14° NNE visible
16 Dec 5.9 19:37:55 10° NNW 19:38:01 10° NNW 19:38:01 10° NNW visible
17 Dec 6.0 06:38:54 10° ESE 06:41:12 14° E 06:43:29 10° NE visible
17 Dec 4.3 18:17:40 10° N 18:19:46 26° NNE 18:19:46 26° NNE visible
17 Dec 5.9 19:56:16 10° NW 19:57:04 13° NW 19:57:04 13° NW visible
18 Dec 5.5 06:55:18 10° SE 06:58:45 24° E 07:02:14 10° NE visible
18 Dec 4.8 16:59:22 10° NE 17:01:11 12° ENE 17:02:59 10° E visible
18 Dec 2.9 18:35:26 10° N 18:39:50 85° E 18:44:13 10° S visible
18 Dec 6.1 20:15:20 10° WNW 20:17:03 12° W 20:18:44 10° WSW visible
19 Dec 4.6 07:12:22 10° SSE 07:16:25 40° E 07:20:29 10° NNE visible
19 Dec 4.3 17:16:10 10° NNE 17:19:23 20° ENE 17:22:35 10° ESE visible
19 Dec 3.7 18:53:21 10° NNW 18:57:38 55° W 19:01:55 10° S visible
20 Dec 3.7 17:33:32 10° N 17:37:27 31° ENE 17:41:23 10° SE visible
20 Dec 4.8 19:11:29 10° NNW 19:15:20 31° W 19:19:14 10° SSW visible
21 Dec 6.0 06:12:06 10° ESE 06:14:38 15° E 06:17:11 10° NE visible
21 Dec 3.1 17:51:08 10° N 17:55:27 53° ENE 17:59:45 10° SSE visible
21 Dec 5.7 19:29:54 10° NW 19:32:58 19° W 19:36:03 10° SW visible
